DW7857 Weather Reports


time (UTC)temp
C
wind
direction
speed
KPH
gust
KPH
rain 1hr
cm
rain 24hr
cm
rain mn
cm
humidity
%
barometer
mb
20170924172011 16 189 3.2 6.4 0.00 0.00 0.00 88 1024.8
20170924171012 16 202 3.2 6.4 0.00 0.00 0.00 88 1024.9
20170924170012 16 114 3.2 6.4 0.00 0.00 0.00 88 1024.5
20170924165011 16 104 1.6 3.2 0.00 0.00 0.00 87 1024.6
20170924164011 15 142 1.6 3.2 0.00 0.00 0.00 87 1024.7
20170924163012 16 169 4.8 6.4 0.00 0.00 0.00 86 1024.7
20170924162012 16 193 4.8 6.4 0.00 0.00 0.00 85 1024.7
20170924161011 16 186 6.4 9.7 0.00 0.00 0.00 84 1024.7
20170924160011 16 176 6.4 6.4 0.00 0.00 0.00 84 1024.8
20170924155011 16 209 8.0 17.7 0.00 0.00 0.00 85 1024.6
20170924154011 16 164 9.7 14.5 0.00 0.00 0.00 83 1024.5
20170924153011 16 181 9.7 16.1 0.00 0.00 0.00 83 1025.0
20170924152011 16 184 9.7 12.9 0.00 0.00 0.00 86 1024.9
20170924151011 16 173 6.4 8.0 0.00 0.00 0.00 86 1024.7
20170924150011 16 188 6.4 12.9 0.00 0.00 0.00 87 1024.7
20170924145012 16 193 6.4 8.0 0.00 0.00 0.00 88 1024.6
20170924144011 16 185 6.4 11.3 0.00 0.00 0.00 88 1024.7
20170924143011 16 198 4.8 8.0 0.00 0.00 0.00 89 1024.6
20170924142011 16 183 6.4 11.3 0.00 0.00 0.00 88 1024.6
20170924141012 16 202 6.4 8.0 0.00 0.00 0.00 87 1024.7
20170924140011 16 195 4.8 8.0 0.00 0.00 0.00 86 1024.6
20170924135011 16 155 3.2 6.4 0.00 0.00 0.00 85 1024.7
20170924134011 16 192 6.4 8.0 0.00 0.00 0.00 84 1024.6
20170924133011 16 168 4.8 11.3 0.00 0.00 0.00 83 1025.0
20170924132011 16 199 4.8 8.0 0.00 0.00 0.00 82 1024.6
20170924131011 17 184 8.0 12.9 0.00 0.00 0.00 81 1024.6
20170924130011 17 212 3.2 6.4 0.00 0.00 0.00 77 1024.8
20170924125012 17 268 3.2 6.4 0.00 0.00 0.00 75 1024.5
20170924124011 17 164 1.6 6.4 0.00 0.00 0.00 73 1024.7
20170924123011 18 162 6.4 12.9 0.00 0.00 0.00 71 1024.8
20170924122011 18 178 4.8 12.9 0.00 0.00 0.00 70 1024.6
20170924121011 18 161 4.8 12.9 0.00 0.00 0.00 69 1024.5
20170924120011 19 172 4.8 12.9 0.00 0.00 0.00 67 1024.8
20170924115011 18 153 3.2 14.5 0.00 0.00 0.00 70 1024.5
20170924114011 18 115 4.8 9.7 0.00 0.00 0.00 71 1024.6
20170924113011 18 144 3.2 6.4 0.00 0.00 0.00 72 1024.5
20170924112011 17 150 3.2 9.7 0.00 0.00 0.00 73 1024.5
20170924111011 17 135 1.6 9.7 0.00 0.00 0.00 71 1024.7
20170924110011 18 90 1.6 6.4 0.00 0.00 0.00 71 1024.4
20170924105011 18 0 0.0 0.0 0.00 0.00 0.00 72 1024.5
20170924104011 17 113 1.6 6.4 0.00 0.00 0.00 72 1024.5
20170924103011 17 152 8.0 12.9 0.00 0.00 0.00 71 1024.6
20170924102011 18 140 4.8 8.0 0.00 0.00 0.00 71 1024.7
20170924101011 17 176 4.8 12.9 0.00 0.00 0.00 73 1024.8
20170924100011 17 171 1.6 6.4 0.00 0.00 0.00 73 1024.8
20170924095011 17 175 4.8 6.4 0.00 0.00 0.00 73 1024.7
20170924094011 17 178 4.8 6.4 0.00 0.00 0.00 74 1024.7
20170924093011 18 148 4.8 11.3 0.00 0.00 0.00 74 1024.8
20170924092011 17 126 4.8 16.1 0.00 0.00 0.00 76 1024.6
20170924091011 17 153 4.8 9.7 0.00 0.00 0.00 77 1024.5
20170924090011 17 178 3.2 6.4 0.00 0.00 0.00 80 1024.5
20170924085011 17 191 4.8 6.4 0.00 0.00 0.00 85 1024.4
20170924084011 16 35 3.2 6.4 0.00 0.00 0.00 87 1024.7
20170924083011 16 181 0.0 1.6 0.00 0.00 0.00 88 1024.8
20170924082011 15 181 0.0 1.6 0.00 0.00 0.00 88 1024.6
20170924081011 15 0 0.0 0.0 0.00 0.00 0.00 89 1024.6
20170924080011 15 0 0.0 0.0 0.00 0.00 0.00 89 1024.9
20170924075011 14 0 0.0 0.0 0.00 0.00 0.00 90 1024.5
20170924074011 14 0 0.0 0.0 0.00 0.00 0.00 90 1024.4
20170924073011 14 0 0.0 0.0 0.00 0.00 0.00 90 1024.3
20170924072011 14 0 0.0 0.0 0.00 0.00 0.00 90 1024.4
20170924071011 13 0 0.0 0.0 0.00 0.00 0.00 90 1024.1
20170924070011 13 0 0.0 0.0 0.00 0.00 0.00 90 1024.1
20170924065011 13 270 0.0 3.2 0.00 0.00 0.00 90 1024.1
20170924064011 13 0 0.0 0.0 0.00 0.00 0.00 90 1024.0
20170924063011 13 0 0.0 0.0 0.00 0.00 0.00 90 1024.1
20170924062011 13 0 0.0 0.0 0.00 0.00 0.00 90 1024.0
20170924061011 12 0 0.0 0.0 0.00 0.00 0.00 90 1024.1
20170924060011 12 0 0.0 0.0 0.00 0.00 0.00 90 1023.9
20170924055011 12 187 3.2 6.4 0.00 0.00 0.00 90 1023.8
20170924054011 12 0 0.0 0.0 0.00 0.00 0.00 90 1023.6
20170924053011 12 0 0.0 0.0 0.00 0.00 0.00 90 1023.6
20170924052011 12 0 0.0 0.0 0.00 0.00 0.00 90 1023.6
20170924051011 12 0 0.0 0.0 0.00 0.00 0.00 90 1023.8
20170924050011 12 0 0.0 0.0 0.00 0.00 0.00 90 1023.6
20170924045011 12 182 3.2 6.4 0.00 0.00 0.00 90 1023.5
20170924044011 12 179 4.8 6.4 0.00 0.00 0.00 89 1023.4
20170924043011 12 260 3.2 6.4 0.00 0.00 0.00 88 1023.5
20170924042011 12 0 0.0 0.0 0.00 0.00 0.00 90 1023.5
20170924041011 12 314 0.0 1.6 0.00 0.00 0.00 90 1023.5
20170924040011 12 314 0.0 1.6 0.00 0.00 0.00 90 1023.5
20170924035011 12 314 0.0 3.2 0.00 0.00 0.00 90 1023.8
20170924034011 12 0 0.0 0.0 0.00 0.00 0.00 90 1023.5
20170924033011 12 314 0.0 1.6 0.00 0.00 0.00 89 1023.6
20170924032011 12 314 0.0 3.2 0.00 0.00 0.00 85 1024.1
20170924031011 12 314 0.0 1.6 0.00 0.00 0.00 85 1023.9
20170924030011 12 0 0.0 0.0 0.00 0.00 0.00 85 1023.8
20170924025011 12 0 0.0 0.0 0.00 0.00 0.00 85 1024.1
20170924024010 13 314 0.0 1.6 0.00 0.00 0.00 85 1024.1
20170924023010 13 314 1.6 3.2 0.00 0.00 0.00 85 1024.3
20170924022010 13 19 1.6 3.2 0.00 0.00 0.00 85 1024.2
20170924021010 13 90 1.6 6.4 0.00 0.00 0.00 85 1024.3
20170924020010 13 109 0.0 1.6 0.00 0.00 0.00 84 1024.5
20170924015010 13 0 0.0 0.0 0.00 0.00 0.00 84 1024.6
20170924014011 13 0 0.0 0.0 0.00 0.00 0.00 84 1024.6
20170924013011 13 45 0.0 1.6 0.00 0.00 0.00 84 1024.8
20170924012010 13 61 0.0 3.2 0.00 0.00 0.00 83 1024.9
20170924011010 13 0 0.0 0.0 0.00 0.00 0.00 83 1025.0
20170924010010 13 90 1.6 3.2 0.00 0.00 0.00 83 1025.1
20170924005010 13 63 3.2 4.8 0.00 0.00 0.00 83 1024.9
20170924004010 13 197 3.2 6.4 0.00 0.00 0.00 83 1025.1
20170924003010 13 155 1.6 3.2 0.00 0.00 0.00 82 1025.0
20170924002010 13 318 1.6 3.2 0.00 0.00 0.00 82 1025.0
20170924001010 13 293 1.6 6.4 0.00 0.00 0.00 82 1025.2
20170924000015 13 166 3.2 6.4 0.00 0.03 0.00 83 1025.4
20170923235010 13 175 6.4 8.0 0.00 0.03 0.03 83 1025.4
20170923234010 13 177 1.6 3.2 0.00 0.03 0.03 83 1025.4
20170923233010 13 205 1.6 3.2 0.00 0.03 0.03 83 1025.2
20170923232010 13 170 1.6 6.4 0.00 0.03 0.03 84 1025.3
20170923231010 13 174 4.8 8.0 0.00 0.05 0.03 84 1025.5
20170923230010 13 252 3.2 4.8 0.00 0.05 0.03 84 1025.8
20170923225010 13 22 1.6 6.4 0.00 0.05 0.03 83 1025.6
20170923224010 13 172 3.2 4.8 0.00 0.05 0.03 83 1025.8
20170923223010 13 196 3.2 6.4 0.00 0.05 0.03 83 1025.9
20170923222010 13 178 4.8 6.4 0.00 0.05 0.03 83 1025.9
20170923221010 13 191 4.8 6.4 0.00 0.05 0.03 83 1026.0
20170923220010 13 188 4.8 6.4 0.00 0.05 0.03 82 1026.1
20170923215010 13 213 3.2 6.4 0.00 0.05 0.03 82 1026.0
20170923214010 13 192 3.2 6.4 0.00 0.05 0.03 81 1026.1
20170923213010 13 197 3.2 6.4 0.00 0.05 0.03 81 1026.2
20170923212010 13 270 3.2 4.8 0.00 0.05 0.03 81 1026.4
20170923211010 13 236 4.8 6.4 0.00 0.05 0.03 81 1026.4
20170923210010 13 200 6.4 9.7 0.00 0.05 0.03 81 1026.3
20170923205010 13 232 4.8 6.4 0.00 0.05 0.03 81 1026.2
20170923204011 13 198 3.2 8.0 0.00 0.05 0.03 81 1026.0
20170923203010 13 197 4.8 8.0 0.00 0.05 0.03 82 1026.5
20170923202010 13 206 4.8 6.4 0.00 0.05 0.03 82 1026.5
20170923201010 13 225 4.8 12.9 0.00 0.05 0.03 81 1026.4
20170923200010 13 150 4.8 12.9 0.00 0.05 0.03 81 1026.1
20170923195010 13 86 3.2 4.8 0.00 0.05 0.03 80 1026.3
20170923194010 13 195 3.2 6.4 0.00 0.05 0.03 80 1026.3
20170923193010 13 212 3.2 4.8 0.00 0.05 0.03 80 1026.4
20170923192010 13 206 1.6 6.4 0.00 0.05 0.03 79 1026.6
20170923191010 13 0 0.0 0.0 0.00 0.05 0.03 77 1026.5
20170923190010 13 0 0.0 0.0 0.00 0.05 0.03 76 1026.6
20170923185010 13 0 0.0 0.0 0.00 0.05 0.03 76 1026.6
20170923184010 13 0 0.0 0.0 0.00 0.05 0.03 75 1026.6
20170923183010 13 0 0.0 0.0 0.00 0.05 0.03 74 1026.3
20170923182010 13 181 0.0 3.2 0.00 0.05 0.03 73 1026.2
20170923181010 13 0 0.0 0.0 0.00 0.05 0.03 72 1026.3
20170923180010 14 90 0.0 3.2 0.00 0.05 0.03 71 1026.5
20170923175010 14 167 3.2 3.2 0.00 0.05 0.03 70 1026.4
20170923174010 15 138 3.2 8.0 0.00 0.05 0.03 69 1026.5
20170923173010 15 128 3.2 6.4 0.00 0.05 0.03 68 1026.4